Date,TemperatureHighF,TemperatureAvgF,TemperatureLowF,DewpointHighF,DewpointAvgF,DewpointLowF,HumidityHigh,HumidityAvg,HumidityLow,PressureMaxIn,PressureMinIn,WindSpeedMaxMPH,WindSpeedAvgMPH,GustSpeedMaxMPH,PrecipitationSumIn
2013-2-1,32,29,23,17,12,7,59,48,37,30.15,29.79,25,11,25,0.00
2013-2-2,31,26,20,21,14,10,82,60,49,30.28,30.06,24,8,24,0.00
2013-2-3,32,27,22,22,19,16,95,74,52,30.07,29.75,12,4,12,0.00
2013-2-4,32,27,22,20,14,8,88,58,39,29.97,29.76,22,8,22,0.00
2013-2-5,28,27,26,25,21,10,89,78,49,30.01,29.91,10,5,10,0.00
2013-2-6,40,33,28,29,22,3,90,67,32,30.32,29.91,23,7,23,0.01
2013-2-7,32,28,24,20,12,4,68,50,34,30.52,30.32,17,6,17,0.00
2013-2-8,34,32,26,32,28,18,97,88,62,30.40,29.51,34,14,35,0.01
2013-2-9,26,23,20,26,21,14,96,90,77,30.26,29.58,38,7,38,0.00
2013-2-10,36,23,15,24,16,10,90,75,41,30.44,30.26,17,5,17,0.17
2013-2-11,47,35,20,46,34,17,98,94,88,30.36,29.65,20,4,20,0.87
2013-2-12,46,41,31,41,32,26,98,73,53,29.93,29.66,23,7,23,0.01
2013-2-13,41,34,28,30,27,24,90,76,52,29.91,29.66,17,3,17,0.00
2013-2-14,42,35,28,33,28,24,95,79,50,30.01,29.71,20,4,20,0.04
2013-2-15,47,37,27,39,33,26,96,88,72,30.02,29.92,22,4,22,0.00
2013-2-16,38,36,31,36,30,23,96,79,57,29.94,29.67,23,10,23,0.00
2013-2-17,31,26,19,26,10,3,85,53,33,29.82,29.51,36,20,36,0.00
2013-2-18,34,25,18,20,8,3,79,50,31,30.20,29.82,33,12,33,0.00
2013-2-19,46,36,22,45,32,18,100,85,71,30.21,29.61,22,6,22,0.20
2013-2-20,41,34,26,39,20,11,92,59,43,29.89,29.61,28,12,28,0.01
2013-2-21,34,28,24,18,16,14,69,60,51,30.24,29.87,30,14,30,0.00
2013-2-22,38,32,25,31,24,17,87,73,56,30.38,30.23,22,7,22,0.00
2013-2-23,39,37,35,36,34,30,95,88,80,30.30,29.81,24,10,24,0.15
2013-2-24,40,37,34,39,35,31,100,93,87,29.90,29.68,20,10,20,0.13
2013-2-25,43,37,33,34,31,28,92,78,62,30.24,29.90,15,5,15,0.00
2013-2-26,41,36,31,35,32,29,100,85,75,30.31,30.04,18,6,18,0.05
2013-2-27,45,42,37,44,41,34,96,94,90,30.04,29.53,56,18,56,0.82
2013-2-28,45,40,37,41,38,36,96,93,83,29.62,29.52,15,3,15,0.03